Hourly Data Report for July 28, 2021

CARBERRY CS
MANITOBA
Current Station Operator: ECCC - MSC

49°54'20.900" N
99°21'26.800" W
383.50 m
5010547
71170
WZE

Download Data

Hourly Data (July 2021)
Hourly Data Report for July 28, 2021
TIME
LST
Temp Definition
°C
Dew Point Definition
°C
Rel Hum Definition
%
Precip. Amount Definition
mm

Wind Dir Definition
10's deg

Wind Spd Definition
km/h
Visibility Definition
km
Stn Press Definition
kPa
Hmdx Definition


Wind Chill Definition


Weather Definition


00:00 18.1 14.7 80 0.2 13 7   96.57     LegendNANA
01:00 19.5 14.9 74 0.0 16 7   96.53     LegendNANA
02:00 17.5 15.2 86 0.0 3 4   96.52     LegendNANA
03:00 16.9 15.8 93 0.0 7 6   96.52     LegendNANA
04:00 16.3 15.8 97 0.0 36 11   96.58     LegendNANA
05:00 16.8 15.5 92 0.0 4 10   96.56     LegendNANA
06:00 17.5 15.8 90 0.0 0 1   96.58     LegendNANA
07:00 19.1 16.5 85 0.0 36 5   96.64     LegendNANA
08:00 21.8 16.5 72 0.0 36 14   96.77 27   LegendNANA
09:00 21.7 16.6 73 0.0 34 15   96.85 27   LegendNANA
10:00 23.7 16.6 64 0.2 36 24   96.87 29   LegendNANA
11:00 25.4 15.6 55 0.0 36 24   96.96 30   LegendNANA
12:00 26.9 14.7 47 0.0 1 21   97.00 31   LegendNANA
13:00 26.7 13.4 44 0.0 36 24   97.06 30   LegendNANA
14:00 27.0 14.3 46 0.0 34 25   97.09 31   LegendNANA
15:00 26.9 9.6 34 0.0 36 26   97.17 28   LegendNANA
16:00 26.8 7.1 29 0.0 35 25   97.17 27   LegendNANA
17:00 26.3 8.4 32 0.0 35 25   97.23 27   LegendNANA
18:00 25.7 9.7 36 0.0 36 22   97.26 27   LegendNANA
19:00 24.4 10.5 42 0.0 1 16   97.29 26   LegendNANA
20:00 22.0 10.5 48 0.0 1 11   97.32     LegendNANA
21:00 18.9 10.7 59 0.0 2 8   97.39     LegendNANA
22:00 17.9 10.6 63 0.0 1 9   97.44     LegendNANA
23:00 17.2 10.5 65 0.0 36 9   97.50     LegendNANA

Notes on Data Quality.

Legend

  • E = Estimated
  • M = Missing
  • NA = Not Available*
  • [empty] = Indicates an unobserved value
Date modified: